Location: Alsip
(41.6689°N, 87.7387°W)
Time: 13:57:05
(UTC+00:00)

Cosmos 1763 Rocket - Pass Details

Date: 14 July 2020
Orbit: 732 x 781 km, 74.0° (Epoch: 04 August)

Event Time Altitude Azimuth Distance (km) Brightness Sun altitude
Rises 09:04:04 0° 339° (NNW) 3,243 7.1 -13.4°
Reaches altitude 10° 09:06:27 10° 338° (NNW) 2,319 6.3 -13.1°
Maximum altitude 09:11:43 78° 253° (WSW) 796 3.5 -12.4°
Drops below altitude 10° 09:17:00 10° 167° (SSE) 2,323 5.7 -11.6°
Sets 09:19:23 0° 166° (SSE) 3,249 6.5 -11.3°
